Hourly Weather Siguiri

Today, 4 August, Tuesday

Time Temperature Precipitation Wind Pressure Humidity
00:00 +22°C° 0.6 mm 3 mps 717 mmHg 93%
01:00 +22°C° 0 mm 3 mps 717 mmHg 93%
02:00 +22°C° 1.7 mm 4 mps 717 mmHg 93%
03:00 +21°C° 1.7 mm 4 mps 717 mmHg 93%
04:00 +21°C° 1.7 mm 4 mps 717 mmHg 93%
05:00 +21°C° 0 mm 4 mps 717 mmHg 91%
06:00 +21°C° 0 mm 4 mps 717 mmHg 89%
07:00 +21°C° 0 mm 3 mps 717 mmHg 88%
08:00 +23°C° 0 mm 4 mps 718 mmHg 82%
09:00 +25°C° 0 mm 5 mps 718 mmHg 77%
10:00 +27°C° 0 mm 7 mps 718 mmHg 72%
11:00 +28°C° 0 mm 6 mps 718 mmHg 69%
12:00 +29°C° 0 mm 6 mps 717 mmHg 66%
13:00 +30°C° 0 mm 6 mps 717 mmHg 63%
14:00 +29°C° 0.2 mm 6 mps 716 mmHg 64%
15:00 +29°C° 0.2 mm 5 mps 716 mmHg 65%
16:00 +29°C° 0.2 mm 5 mps 715 mmHg 66%
17:00 +28°C° 1.2 mm 4 mps 715 mmHg 73%
18:00 +27°C° 1.2 mm 4 mps 715 mmHg 79%
19:00 +25°C° 1.2 mm 3 mps 716 mmHg 85%
20:00 +25°C° 0.9 mm 3 mps 716 mmHg 86%
21:00 +25°C° 0.9 mm 3 mps 716 mmHg 87%
22:00 +24°C° 0.9 mm 3 mps 717 mmHg 89%
23:00 +24°C° 0.8 mm 3 mps 717 mmHg 90%

Tomorrow, 5 August, Wednesday

Time Temperature Precipitation Wind Pressure Humidity
00:00 +23°C° 0.8 mm 4 mps 716 mmHg 91%
01:00 +23°C° 0.8 mm 4 mps 716 mmHg 92%
02:00 +22°C° 0.1 mm 4 mps 716 mmHg 92%
03:00 +22°C° 0.1 mm 4 mps 716 mmHg 92%
04:00 +22°C° 0.1 mm 4 mps 715 mmHg 92%
05:00 +22°C° 0 mm 4 mps 716 mmHg 92%
06:00 +22°C° 0 mm 4 mps 716 mmHg 91%
07:00 +22°C° 0 mm 4 mps 716 mmHg 91%
08:00 +25°C° 0 mm 5 mps 717 mmHg 86%
09:00 +26°C° 0 mm 6 mps 717 mmHg 81%
10:00 +27°C° 0 mm 7 mps 717 mmHg 77%
11:00 +28°C° 0.6 mm 6 mps 717 mmHg 75%
12:00 +28°C° 0.6 mm 6 mps 717 mmHg 74%
13:00 +29°C° 0.6 mm 6 mps 716 mmHg 72%
14:00 +28°C° 1.5 mm 6 mps 716 mmHg 75%
15:00 +28°C° 1.5 mm 6 mps 715 mmHg 77%
16:00 +28°C° 1.5 mm 5 mps 714 mmHg 79%
17:00 +27°C° 0.8 mm 5 mps 714 mmHg 82%
18:00 +26°C° 0.8 mm 4 mps 714 mmHg 86%
19:00 +25°C° 0.8 mm 3 mps 715 mmHg 89%
20:00 +25°C° 0 mm 3 mps 715 mmHg 90%
21:00 +25°C° 0 mm 4 mps 715 mmHg 90%
22:00 +23°C° 0 mm 4 mps 716 mmHg 90%
23:00 +23°C° 0 mm 4 mps 716 mmHg 91%

Day after tomorrow, 6 August, Thursday

Time Temperature Precipitation Wind Pressure Humidity
00:00 +23°C° 0 mm 5 mps 716 mmHg 91%
01:00 +23°C° 0 mm 5 mps 715 mmHg 91%
02:00 +22°C° 0 mm 6 mps 715 mmHg 90%
03:00 +22°C° 0 mm 6 mps 715 mmHg 90%
04:00 +22°C° 0 mm 6 mps 714 mmHg 89%
05:00 +22°C° 0.4 mm 6 mps 715 mmHg 90%
06:00 +22°C° 0.4 mm 6 mps 715 mmHg 90%
07:00 +22°C° 0.4 mm 6 mps 715 mmHg 90%
08:00 +23°C° 0.3 mm 7 mps 716 mmHg 87%
09:00 +24°C° 0.3 mm 7 mps 716 mmHg 84%
10:00 +26°C° 0.3 mm 7 mps 716 mmHg 81%
11:00 +26°C° 0.1 mm 7 mps 716 mmHg 80%
12:00 +27°C° 0.1 mm 7 mps 716 mmHg 78%
13:00 +27°C° 0.1 mm 7 mps 716 mmHg 76%
14:00 +26°C° 1 mm 7 mps 715 mmHg 81%
15:00 +24°C° 1 mm 6 mps 715 mmHg 85%
16:00 +23°C° 1 mm 6 mps 714 mmHg 90%
17:00 +23°C° 1 mm 5 mps 715 mmHg 91%
18:00 +22°C° 1 mm 5 mps 715 mmHg 92%
19:00 +22°C° 1 mm 5 mps 715 mmHg 93%
20:00 +22°C° 1.1 mm 5 mps 715 mmHg 93%
21:00 +22°C° 1.1 mm 5 mps 716 mmHg 93%
22:00 +22°C° 1.1 mm 6 mps 716 mmHg 93%
23:00 +22°C° 0.4 mm 5 mps 716 mmHg 93%

7 August, Friday

Time Temperature Precipitation Wind Pressure Humidity
00:00 +21°C° 0.4 mm 5 mps 716 mmHg 93%
01:00 +21°C° 0.4 mm 5 mps 716 mmHg 92%
02:00 +21°C° 3.2 mm 5 mps 715 mmHg 93%
03:00 +21°C° 3.2 mm 5 mps 715 mmHg 94%
04:00 +21°C° 3.2 mm 5 mps 715 mmHg 95%
05:00 +21°C° 2.4 mm 5 mps 715 mmHg 94%
06:00 +21°C° 2.4 mm 5 mps 716 mmHg 93%
07:00 +21°C° 2.4 mm 5 mps 716 mmHg 93%
08:00 +22°C° 0.2 mm 5 mps 716 mmHg 91%
09:00 +22°C° 0.2 mm 5 mps 717 mmHg 89%
10:00 +23°C° 0.2 mm 4 mps 717 mmHg 87%
11:00 +23°C° 0 mm 5 mps 717 mmHg 84%
12:00 +25°C° 0 mm 5 mps 717 mmHg 81%
13:00 +26°C° 0 mm 5 mps 717 mmHg 79%
14:00 +26°C° 0 mm 5 mps 717 mmHg 78%
15:00 +25°C° 0 mm 5 mps 716 mmHg 78%
16:00 +25°C° 0 mm 5 mps 716 mmHg 78%
17:00 +25°C° 0 mm 5 mps 716 mmHg 79%
18:00 +23°C° 0 mm 4 mps 716 mmHg 81%
19:00 +22°C° 0 mm 4 mps 716 mmHg 83%
20:00 +22°C° 0 mm 4 mps 717 mmHg 83%
21:00 +21°C° 0 mm 4 mps 717 mmHg 84%
22:00 +21°C° 0 mm 4 mps 718 mmHg 84%
23:00 +21°C° 0 mm 4 mps 718 mmHg 85%

8 August, Saturday

Time Temperature Precipitation Wind Pressure Humidity
00:00 +21°C° 0 mm 4 mps 717 mmHg 85%
01:00 +21°C° 0 mm 4 mps 717 mmHg 86%
02:00 +21°C° 0 mm 3 mps 717 mmHg 86%
03:00 +21°C° 0 mm 3 mps 717 mmHg 86%
04:00 +21°C° 0 mm 3 mps 717 mmHg 86%
05:00 +20°C° 0 mm 2 mps 717 mmHg 87%
06:00 +20°C° 0 mm 2 mps 718 mmHg 89%
07:00 +20°C° 0 mm 2 mps 718 mmHg 90%
08:00 +22°C° 0 mm 3 mps 718 mmHg 84%
09:00 +25°C° 0 mm 4 mps 718 mmHg 78%
10:00 +26°C° 0 mm 4 mps 719 mmHg 73%
11:00 +27°C° 0 mm 4 mps 718 mmHg 69%
12:00 +29°C° 0 mm 4 mps 718 mmHg 65%
13:00 +30°C° 0 mm 4 mps 717 mmHg 62%
14:00 +30°C° 0 mm 4 mps 717 mmHg 62%
15:00 +30°C° 0 mm 4 mps 716 mmHg 62%
16:00 +30°C° 0 mm 4 mps 716 mmHg 62%
17:00 +29°C° 0.1 mm 3 mps 716 mmHg 68%
18:00 +27°C° 0.1 mm 3 mps 716 mmHg 74%
19:00 +26°C° 0.1 mm 3 mps 716 mmHg 80%
20:00 +25°C° 0 mm 3 mps 717 mmHg 82%
21:00 +24°C° 0 mm 3 mps 717 mmHg 83%
22:00 +24°C° 0 mm 3 mps 718 mmHg 84%
23:00 +24°C° 0 mm 3 mps 718 mmHg 85%

9 August, Sunday

Time Temperature Precipitation Wind Pressure Humidity
00:00 +22°C° 0 mm 3 mps 717 mmHg 86%
01:00 +22°C° 0 mm 3 mps 717 mmHg 88%
02:00 +22°C° 0 mm 3 mps 717 mmHg 88%
03:00 +21°C° 0 mm 3 mps 717 mmHg 89%
04:00 +21°C° 0 mm 3 mps 716 mmHg 90%
05:00 +21°C° 0 mm 3 mps 717 mmHg 90%
06:00 +21°C° 0 mm 3 mps 717 mmHg 90%
07:00 +21°C° 0 mm 3 mps 717 mmHg 90%
08:00 +23°C° 0 mm 4 mps 717 mmHg 84%
09:00 +25°C° 0 mm 4 mps 718 mmHg 78%
10:00 +27°C° 0 mm 5 mps 718 mmHg 73%
11:00 +28°C° 0 mm 5 mps 718 mmHg 69%
12:00 +29°C° 0 mm 5 mps 717 mmHg 66%
13:00 +30°C° 0 mm 5 mps 716 mmHg 63%
14:00 +30°C° 0.1 mm 5 mps 716 mmHg 63%
15:00 +30°C° 0.1 mm 5 mps 715 mmHg 63%
16:00 +30°C° 0.1 mm 5 mps 715 mmHg 64%
17:00 +29°C° 0.1 mm 4 mps 715 mmHg 69%
18:00 +27°C° 0.1 mm 3 mps 715 mmHg 74%
19:00 +26°C° 0.1 mm 3 mps 714 mmHg 80%
20:00 +25°C° 0 mm 3 mps 715 mmHg 81%
21:00 +25°C° 0 mm 3 mps 716 mmHg 82%
22:00 +24°C° 0 mm 3 mps 716 mmHg 83%
23:00 +24°C° 0 mm 3 mps 716 mmHg 85%
Show more